N371BC KDAB-KPNE

Flight info

Callsign N371BC
Flight time N/A
Altitude 39000
Route KDAB/07L N0461F390 ROYES7 CRG DCT CHS DCT ORF DCT SWL DCT KPNE/24
Aircraft B738/M-VGDW/C

Departure

Time 2026-05-06 01:43
Airport Daytona Beach International Airport (KDAB)

Arrival

Time N/A
Airport Northeast Philadelphia Airport (KPNE)
Time Latitude Longitude Altitude Speed Heading
2026-05-06 01:30 29.17764 -81.05882 33 ft 0 kts 65°
2026-05-06 01:37 29.17765 -81.05881 33 ft 0 kts 65°
2026-05-06 01:37 29.17786 -81.05865 33 ft 5 kts
2026-05-06 01:37 29.17823 -81.05885 33 ft 7 kts 311°
2026-05-06 01:38 29.17853 -81.05937 32 ft 8 kts 287°
2026-05-06 01:38 29.17837 -81.06004 31 ft 9 kts 250°
2026-05-06 01:38 29.17813 -81.06070 31 ft 9 kts 245°
2026-05-06 01:38 29.17784 -81.06142 31 ft 9 kts 245°
2026-05-06 01:39 29.17755 -81.06220 31 ft 13 kts 263°
2026-05-06 01:39 29.17806 -81.06342 31 ft 17 kts 306°
2026-05-06 01:39 29.17874 -81.06457 31 ft 16 kts 319°
2026-05-06 01:39 29.17899 -81.06568 31 ft 16 kts 245°
2026-05-06 01:40 29.17852 -81.06682 31 ft 14 kts 245°
2026-05-06 01:40 29.17811 -81.06786 31 ft 14 kts 245°
2026-05-06 01:40 29.17770 -81.06887 31 ft 13 kts 245°
2026-05-06 01:40 29.17730 -81.06987 31 ft 13 kts 245°
2026-05-06 01:41 29.17691 -81.07084 31 ft 13 kts 245°
2026-05-06 01:41 29.17649 -81.07187 31 ft 15 kts 245°
2026-05-06 01:41 29.17606 -81.07294 31 ft 14 kts 245°
2026-05-06 01:41 29.17559 -81.07396 31 ft 14 kts 240°
2026-05-06 01:42 29.17511 -81.07494 31 ft 13 kts 240°
2026-05-06 01:42 29.17462 -81.07588 31 ft 13 kts 240°
2026-05-06 01:42 29.17396 -81.07652 31 ft 12 kts 176°
2026-05-06 01:42 29.17336 -81.07619 31 ft 7 kts 128°
2026-05-06 01:43 29.17340 -81.07568 31 ft 6 kts 65°
2026-05-06 01:43 29.17376 -81.07477 31 ft 38 kts 66°
2026-05-06 01:43 29.17638 -81.06834 32 ft 136 kts 65°
2026-05-06 01:43 29.18114 -81.05719 669 ft 166 kts 65°
2026-05-06 01:44 29.18636 -81.04492 1631 ft 183 kts 66°
2026-05-06 01:44 29.19249 -81.03119 2359 ft 207 kts 64°
2026-05-06 01:44 29.19927 -81.01658 3033 ft 215 kts 62°
2026-05-06 01:44 29.20655 -81.00131 3708 ft 224 kts 60°
2026-05-06 01:45 29.21401 -80.98502 4396 ft 242 kts 62°
2026-05-06 01:45 29.22211 -80.96719 5098 ft 258 kts 58°
2026-05-06 01:45 29.23405 -80.95204 5769 ft 263 kts 29°
2026-05-06 01:45 29.25132 -80.94700 6462 ft 257 kts 354°
2026-05-06 01:46 29.26820 -80.95269 7142 ft 258 kts 332°
2026-05-06 01:46 29.28360 -80.96355 7817 ft 263 kts 320°
2026-05-06 01:46 29.29430 -80.98041 8476 ft 270 kts 290°
2026-05-06 01:46 29.29591 -81.00191 9160 ft 278 kts 268°
2026-05-06 01:47 29.29516 -81.02421 9834 ft 281 kts 274°
2026-05-06 01:47 29.29634 -81.04645 10514 ft 281 kts 276°
2026-05-06 01:47 29.29757 -81.06851 11177 ft 282 kts 276°
2026-05-06 01:47 29.29853 -81.09125 11860 ft 288 kts 275°
2026-05-06 01:48 29.29933 -81.11430 12536 ft 300 kts 275°
2026-05-06 01:48 29.30008 -81.13852 13200 ft 312 kts 274°
2026-05-06 01:48 29.30082 -81.16361 13861 ft 322 kts 274°
2026-05-06 01:48 29.30156 -81.18967 14540 ft 332 kts 275°
2026-05-06 01:49 29.30231 -81.21628 15208 ft 339 kts 275°
2026-05-06 01:49 29.30305 -81.24329 15864 ft 344 kts 275°
2026-05-06 01:49 29.30383 -81.27190 16562 ft 345 kts 276°
2026-05-06 01:49 29.30603 -81.29945 17236 ft 345 kts 283°
2026-05-06 01:50 29.31207 -81.32557 17915 ft 345 kts 294°
2026-05-06 01:50 29.32301 -81.34988 18578 ft 343 kts 303°
2026-05-06 01:50 29.33709 -81.37200 19268 ft 344 kts 311°
2026-05-06 01:50 29.35459 -81.39051 19927 ft 345 kts 322°
2026-05-06 01:51 29.37514 -81.40475 20595 ft 350 kts 331°
2026-05-06 01:51 29.39791 -81.41535 21251 ft 356 kts 340°
2026-05-06 01:51 29.42230 -81.42064 21902 ft 361 kts 349°
2026-05-06 01:51 29.44725 -81.42331 22555 ft 364 kts 350°
2026-05-06 01:52 29.47266 -81.42551 23234 ft 365 kts 351°
2026-05-06 01:52 29.49761 -81.42767 23902 ft 364 kts 350°
2026-05-06 01:52 29.52282 -81.42994 24598 ft 364 kts 350°
2026-05-06 01:52 29.54798 -81.43225 25295 ft 362 kts 349°
2026-05-06 01:53 29.57248 -81.43456 25975 ft 360 kts 350°
2026-05-06 01:53 29.59724 -81.43692 26675 ft 358 kts 349°
2026-05-06 01:53 29.62179 -81.43928 27371 ft 354 kts 349°
2026-05-06 01:53 29.64626 -81.44164 28049 ft 351 kts 349°
2026-05-06 01:54 29.67053 -81.44400 28635 ft 350 kts 349°
2026-05-06 01:54 29.69469 -81.44637 29208 ft 349 kts 349°
2026-05-06 01:54 29.71890 -81.44872 29790 ft 347 kts 348°
2026-05-06 01:54 29.74283 -81.45106 30373 ft 344 kts 348°
2026-05-06 01:55 29.76645 -81.45337 30953 ft 341 kts 348°
2026-05-06 01:55 29.78989 -81.45567 31538 ft 338 kts 348°
2026-05-06 01:55 29.81317 -81.45795 32127 ft 333 kts 347°
2026-05-06 01:55 29.83616 -81.46020 32716 ft 328 kts 347°
2026-05-06 01:56 29.85876 -81.46240 33337 ft 323 kts 347°
2026-05-06 01:56 29.88085 -81.46456 33996 ft 316 kts 347°
2026-05-06 01:56 29.90239 -81.46667 34660 ft 309 kts 346°
2026-05-06 01:56 29.92333 -81.46871 35324 ft 301 kts 345°
2026-05-06 01:57 29.94387 -81.47070 36001 ft 291 kts 345°
2026-05-06 01:57 29.96362 -81.47259 36657 ft 281 kts 345°
2026-05-06 01:57 29.98354 -81.47462 36789 ft 285 kts 344°
2026-05-06 01:57 30.00397 -81.47672 36756 ft 293 kts 345°
2026-05-06 01:58 30.04627 -81.48108 36608 ft 312 kts 346°
2026-05-06 01:58 30.09128 -81.48557 36447 ft 331 kts 346°
2026-05-06 01:59 30.13813 -81.49018 36631 ft 343 kts 346°
2026-05-06 01:59 30.16252 -81.49257 36807 ft 348 kts 346°
2026-05-06 01:59 30.18658 -81.49495 36978 ft 352 kts 346°
2026-05-06 02:00 30.21137 -81.49738 37159 ft 356 kts 347°
2026-05-06 02:00 30.23604 -81.49981 37331 ft 360 kts 347°
2026-05-06 02:00 30.26120 -81.50229 37508 ft 363 kts 346°
2026-05-06 02:00 30.28633 -81.50478 37683 ft 367 kts 346°
2026-05-06 02:01 30.31208 -81.50602 37851 ft 377 kts 351°
2026-05-06 02:01 30.33882 -81.50306 38021 ft 392 kts
2026-05-06 02:01 30.36561 -81.49400 38207 ft 409 kts
2026-05-06 02:01 30.39195 -81.48085 38396 ft 417 kts 13°
2026-05-06 02:02 30.41845 -81.46623 38571 ft 421 kts 14°
2026-05-06 02:02 30.44491 -81.45132 38752 ft 421 kts 14°
2026-05-06 02:02 30.47143 -81.43634 38920 ft 421 kts 14°
2026-05-06 02:02 30.49771 -81.42151 39057 ft 422 kts 14°
2026-05-06 02:03 30.55043 -81.39175 39061 ft 417 kts 14°
2026-05-06 02:03 30.60230 -81.36256 39071 ft 419 kts 13°
2026-05-06 02:04 30.65452 -81.33316 39068 ft 415 kts 13°
2026-05-06 02:04 30.70658 -81.30379 39065 ft 414 kts 13°
2026-05-06 02:05 30.75881 -81.27439 39067 ft 418 kts 13°
2026-05-06 02:05 30.81143 -81.24472 39061 ft 420 kts 13°
2026-05-06 02:06 30.86322 -81.21532 39065 ft 413 kts 13°
2026-05-06 02:06 30.91520 -81.18594 39066 ft 416 kts 13°
2026-05-06 02:07 30.96777 -81.15622 39065 ft 420 kts 13°
2026-05-06 02:07 31.01997 -81.12658 39068 ft 418 kts 13°
2026-05-06 02:08 31.07213 -81.09691 39070 ft 416 kts 13°
2026-05-06 02:08 31.12433 -81.06723 39070 ft 417 kts 13°
2026-05-06 02:09 31.17607 -81.03776 39070 ft 415 kts 14°
2026-05-06 02:09 31.22822 -81.00803 39070 ft 416 kts 13°
2026-05-06 02:10 31.28032 -80.97833 39067 ft 419 kts 14°
2026-05-06 02:10 31.33223 -80.94859 39069 ft 413 kts 13°
2026-05-06 02:11 31.38425 -80.91886 39072 ft 418 kts 14°
2026-05-06 02:11 31.43639 -80.88897 39070 ft 415 kts 14°
2026-05-06 02:12 31.48840 -80.85915 39073 ft 418 kts 14°
2026-05-06 02:12 31.54069 -80.82913 39072 ft 419 kts 14°
2026-05-06 02:13 31.59291 -80.79903 39069 ft 416 kts 14°
2026-05-06 02:13 31.64498 -80.76907 39075 ft 417 kts 14°
2026-05-06 02:14 31.69698 -80.73911 39076 ft 419 kts 14°
2026-05-06 02:14 31.74973 -80.70868 39075 ft 419 kts 14°
2026-05-06 02:15 31.80166 -80.67863 39071 ft 417 kts 14°
2026-05-06 02:15 31.85397 -80.64834 39075 ft 417 kts 14°
2026-05-06 02:16 31.90605 -80.61816 39078 ft 416 kts 14°
2026-05-06 02:16 31.95835 -80.58789 39078 ft 422 kts 15°
2026-05-06 02:17 32.01112 -80.55722 39078 ft 420 kts 14°
2026-05-06 02:17 32.06295 -80.52698 39082 ft 416 kts 14°
2026-05-06 02:18 32.11521 -80.49654 39084 ft 417 kts 15°
2026-05-06 02:18 32.16767 -80.46603 39080 ft 421 kts 14°